Location: Unspecified
(42.9300°N, 71.1866°W)
Time: 06:18:53
(UTC-04:00)

Cosmos 2058 - Visible Passes

Search period start: 24 August 2016 00:00
Search period end: 03 September 2016 00:00
Orbit: 565 x 585 km, 82.5° (Epoch: 23 August)

Date Brightness Start Highest point End Pass type
(mag) Time Alt. Az. Time Alt. Az. Time Alt. Az.
24 Aug 5.8 01:00:22 10° N 01:01:09 15° NNE 01:01:09 15° NNE visible
25 Aug 5.9 01:03:51 10° N 01:04:32 14° N 01:04:32 14° N visible
26 Aug 5.9 01:07:22 10° N 01:07:56 13° N 01:07:56 13° N visible
27 Aug 6.0 01:10:57 10° N 01:11:20 12° N 01:11:20 12° N visible
28 Aug 6.1 01:14:36 10° NNW 01:14:45 11° NNW 01:14:45 11° NNW visible
